DW7061 Weather Reports


Display with metric or nautical units.
time (UTC)temp
F
wind
direction
speed
MPH
gust
MPH
rain 1hr
in
rain 24hr
in
rain mn
in
humidity
%
barometer
mb
20260509105017 41 0.0 0.0 0.00 0.00 0.00 93 1013.7
20260509104057 41 0.0 0.0 0.00 0.00 0.00 93 1013.6
20260509103038 41 0.0 0.0 0.00 0.00 0.00 92 1013.4
20260509102018 41 0.0 1.0 0.00 0.00 0.00 92 1013.3
20260509101017 41 0.0 1.0 0.00 0.00 0.00 91 1013.3
20260509100017 41 0.0 1.0 0.00 0.00 0.00 89 1013.4
20260509095017 42 0.0 1.0 0.00 0.00 0.00 82 1013.6
20260509094018 43 0.0 0.0 0.00 0.00 0.00 75 1013.7
20260509093037 43 0.0 0.0 0.00 0.00 0.00 70 1013.3
20260509092017 44 0.0 0.0 0.00 0.00 0.00 68 1013.4
20260509091037 44 0.0 0.0 0.00 0.00 0.00 65 1013.3
20260509090017 44 0.0 0.0 0.00 0.00 0.00 65 1013.3
20260509085018 44 0.0 0.0 0.00 0.00 0.00 66 1012.9
20260509084017 44 0.0 0.0 0.00 0.00 0.00 66 1012.8
20260509083017 44 0.0 0.0 0.00 0.00 0.00 66 1012.7
20260509082016 43 0.0 0.0 0.00 0.00 0.00 67 1012.6
20260509081017 43 0.0 0.0 0.00 0.00 0.00 68 1012.7
20260509080017 43 0.0 0.0 0.00 0.00 0.00 68 1012.9
20260509075016 42 0.0 0.0 0.00 0.00 0.00 69 1012.5
20260509074018 42 0.0 0.0 0.00 0.00 0.00 71 1012.6
20260509073038 41 0.0 0.0 0.00 0.00 0.00 72 1012.5
20260509072037 41 0.0 0.0 0.00 0.00 0.00 72 1012.7
20260509071017 41 0.0 0.0 0.00 0.00 0.00 72 1012.6
20260509070016 41 0.0 0.0 0.00 0.00 0.00 73 1012.8
20260509065017 41 0.0 0.0 0.00 0.00 0.00 73 1012.6
20260509064018 41 0.0 0.0 0.00 0.00 0.00 72 1012.7
20260509063037 41 0.0 0.0 0.00 0.00 0.00 72 1012.7
20260509062016 40 0.0 0.0 0.00 0.00 0.00 73 1012.8
20260509061017 40 0.0 0.0 0.00 0.00 0.00 73 1012.8
20260509060017 41 0.0 0.0 0.00 0.00 0.00 71 1012.5
20260509055017 41 0.0 0.0 0.00 0.00 0.00 71 1012.4
20260509054016 40 0.0 0.0 0.00 0.00 0.00 72 1012.5
20260509053016 40 0.0 0.0 0.00 0.00 0.00 73 1012.5
20260509052017 40 0.0 0.0 0.00 0.00 0.00 74 1012.5
20260509051017 40 0.0 0.0 0.00 0.00 0.00 73 1012.6
20260509050017 40 0.0 0.0 0.00 0.00 0.00 73 1012.5
20260509045037 40 0.0 0.0 0.00 0.00 0.00 73 1012.6
20260509044016 40 0.0 0.0 0.00 0.00 0.00 73 1012.5
20260509043017 40 0.0 0.0 0.00 0.00 0.00 72 1012.5
20260509042016 40 0.0 0.0 0.00 0.00 0.00 73 1012.6
20260509041036 40 0.0 0.0 0.00 0.00 0.00 73 1012.5
20260509040038 40 0.0 0.0 0.00 0.00 0.00 73 1012.4
20260509035017 41 0.0 0.0 0.00 0.00 0.00 72 1012.4
20260509034018 41 0.0 0.0 0.00 0.00 0.00 71 1012.4
20260509033038 41 0.0 0.0 0.00 0.00 0.00 70 1012.4
20260509032017 41 0.0 0.0 0.00 0.00 0.00 71 1012.3
20260509031017 41 0.0 0.0 0.00 0.00 0.00 72 1012.2
20260509030018 40 0.0 0.0 0.00 0.00 0.00 73 1012.0
20260509025017 41 0.0 0.0 0.00 0.00 0.00 73 1012.1
20260509024017 41 0.0 0.0 0.00 0.00 0.00 73 1012.1
20260509023017 41 0.0 0.0 0.00 0.00 0.00 74 1012.1
20260509022018 41 0.0 0.0 0.00 0.00 0.00 73 1012.1
20260509021017 41 0.0 0.0 0.00 0.00 0.00 72 1011.9
20260509020017 42 0.0 0.0 0.00 0.00 0.00 71 1011.8
20260509015017 43 0.0 0.0 0.00 0.00 0.00 70 1011.7
20260509014017 43 0.0 0.0 0.00 0.00 0.00 69 1011.5
20260509013038 43 0.0 0.0 0.00 0.00 0.00 69 1011.3
20260509012058 43 0.0 0.0 0.00 0.00 0.00 69 1011.1
20260509011017 44 0.0 0.0 0.00 0.00 0.00 69 1010.9
20260509010017 44 0.0 0.0 0.00 0.00 0.00 68 1010.8
20260509005017 44 0.0 0.0 0.00 0.00 0.00 69 1010.6
20260509004037 44 0.0 0.0 0.00 0.00 0.00 68 1010.3
20260509003037 45 0.0 0.0 0.00 0.00 0.00 66 1010.2
20260509002018 46 0.0 0.0 0.00 0.00 0.00 64 1010.2
20260509001017 47 0.0 0.0 0.00 0.00 0.00 61 1010.2
20260509000017 48 0.0 0.0 0.00 0.00 0.00 60 1010.0
20260508235018 48 0.0 0.0 0.00 0.00 0.00 58 1009.8
20260508234017 49 0.0 4.0 0.00 0.00 0.00 57 1009.8
20260508233017 50 270 1.0 6.0 0.00 0.00 0.00 55 1009.7
20260508232038 51 248 1.0 6.0 0.00 0.00 0.00 53 1009.6
20260508231017 51 0.0 2.0 0.00 0.00 0.00 53 1009.4
20260508230037 51 0.0 2.0 0.00 0.00 0.00 52 1009.3
20260508225018 51 248 1.0 5.0 0.00 0.00 0.00 51 1009.2
20260508224017 52 248 2.0 7.0 0.00 0.00 0.00 49 1009.1
20260508223017 51 225 1.0 5.0 0.00 0.00 0.00 54 1008.8
20260508222018 51 0.0 1.0 0.00 0.00 0.00 53 1008.9
20260508221017 51 248 1.0 3.0 0.00 0.00 0.00 52 1009.0
20260508220037 51 0.0 2.0 0.00 0.00 0.00 51 1008.9
20260508215018 52 225 1.0 3.0 0.00 0.00 0.00 50 1009.0
20260508214017 53 248 2.0 4.0 0.00 0.00 0.00 47 1009.0
20260508213017 54 248 2.0 6.0 0.00 0.00 0.00 46 1009.1
20260508212037 55 225 1.0 3.0 0.00 0.00 0.00 47 1009.0
20260508211017 55 0.0 3.0 0.00 0.00 0.00 46 1008.7
20260508210017 55 248 1.0 4.0 0.00 0.00 0.00 47 1008.8
20260508205017 54 248 2.0 7.0 0.00 0.00 0.00 47 1008.8
20260508204018 54 248 2.0 6.0 0.00 0.00 0.00 48 1008.7
20260508203017 54 225 2.0 8.0 0.00 0.00 0.00 50 1008.7
20260508202057 53 248 2.0 7.0 0.00 0.00 0.00 49 1008.7
20260508201018 53 0.0 2.0 0.00 0.00 0.00 51 1008.6
20260508200017 52 248 2.0 5.0 0.00 0.00 0.00 50 1008.6
20260508195017 54 225 2.0 6.0 0.00 0.00 0.00 47 1008.7
20260508194018 53 248 3.0 11.0 0.00 0.00 0.00 45 1008.7
20260508193017 55 225 2.0 9.0 0.00 0.00 0.00 42 1008.7
20260508192017 53 248 1.0 4.0 0.00 0.00 0.00 45 1008.7
20260508191018 53 225 1.0 3.0 0.00 0.00 0.00 45 1008.7
20260508190017 53 248 2.0 6.0 0.00 0.00 0.00 45 1008.8
20260508185037 53 225 2.0 6.0 0.00 0.00 0.00 46 1008.8
20260508184018 51 225 1.0 6.0 0.00 0.00 0.00 48 1008.7
20260508183017 51 248 1.0 5.0 0.00 0.00 0.00 50 1008.8
20260508182158 50 0.0 3.0 0.00 0.00 0.00 51 1008.9
20260508181017 50 0.0 3.0 0.00 0.00 0.00 53 1009.0
20260508180017 49 0.0 3.0 0.00 0.00 0.00 55 1009.1
20260508175017 48 0.0 4.0 0.00 0.00 0.00 60 1009.0
20260508174017 49 0.0 2.0 0.00 0.00 0.00 63 1009.1
20260508173018 50 203 2.0 5.0 0.00 0.00 0.00 57 1009.1
20260508172017 51 248 1.0 5.0 0.00 0.00 0.00 49 1008.9
20260508171037 52 0.0 2.0 0.00 0.00 0.00 49 1008.6
20260508170018 51 248 1.0 3.0 0.00 0.00 0.00 50 1008.6
20260508165018 51 0.0 2.0 0.00 0.00 0.00 52 1008.7
20260508164017 50 0.0 2.0 0.00 0.00 0.00 53 1008.7
20260508163017 51 248 1.0 4.0 0.00 0.00 0.00 53 1008.8
20260508162037 51 248 2.0 4.0 0.00 0.00 0.00 52 1008.8
20260508161037 51 248 2.0 6.0 0.00 0.00 0.00 52 1009.0
20260508160018 50 225 1.0 4.0 0.00 0.00 0.00 55 1009.1
20260508155017 50 270 1.0 5.0 0.00 0.00 0.00 52 1009.2
20260508154017 50 270 1.0 3.0 0.00 0.00 0.00 55 1009.2
20260508153017 50 270 1.0 3.0 0.00 0.00 0.00 55 1009.3
20260508152017 50 248 2.0 9.0 0.00 0.00 0.00 53 1009.2
20260508151017 51 225 1.0 5.0 0.00 0.00 0.00 55 1009.1
20260508150037 50 248 1.0 7.0 0.00 0.00 0.00 54 1009.1
20260508145037 49 225 1.0 4.0 0.00 0.00 0.00 53 1009.1
20260508144017 49 270 1.0 6.0 0.00 0.00 0.00 55 1009.3
20260508143018 49 270 1.0 6.0 0.00 0.00 0.00 54 1009.2
20260508142017 49 270 1.0 4.0 0.00 0.00 0.00 56 1009.2
20260508141017 48 248 1.0 4.0 0.00 0.00 0.00 56 1009.4
20260508140017 48 225 2.0 5.0 0.00 0.00 0.00 56 1009.5
20260508135018 48 270 1.0 4.0 0.00 0.00 0.00 56 1009.5
20260508134037 47 270 1.0 4.0 0.00 0.00 0.00 58 1009.8
20260508133018 46 225 1.0 3.0 0.00 0.00 0.00 58 1009.9
20260508132017 46 248 1.0 5.0 0.00 0.00 0.00 58 1010.0
20260508131037 45 248 1.0 5.0 0.00 0.00 0.00 60 1010.1
20260508130017 45 248 2.0 6.0 0.00 0.00 0.00 59 1010.0
20260508125017 44 270 1.0 3.0 0.00 0.00 0.00 63 1009.8
20260508124038 43 248 1.0 4.0 0.00 0.00 0.00 64 1009.8
20260508123017 42 0.0 1.0 0.00 0.00 0.00 66 1009.7
20260508122017 42 0.0 1.0 0.00 0.00 0.00 66 1009.8
20260508121017 41 0.0 2.0 0.00 0.00 0.00 65 1009.5
20260508120058 41 0.0 1.0 0.00 0.00 0.00 64 1009.6
20260508115017 42 248 1.0 3.0 0.00 0.00 0.00 64 1009.6
20260508114017 42 248 1.0 2.0 0.00 0.00 0.00 62 1009.6
20260508113017 41 248 1.0 2.0 0.00 0.00 0.00 62 1009.5
20260508112017 41 0.0 2.0 0.00 0.00 0.00 64 1009.3
20260508111057 40 0.0 2.0 0.00 0.00 0.00 66 1009.3
20260508110017 39 0.0 2.0 0.00 0.00 0.00 70 1009.1